Simultaneous Nadir Overpasses (SNOs) Predictions

Prediction of SNOs between AQUA and METOP-A Satellite Orbit:

Table of predicted SNOs for the next 14.0 days since TLE Epoch: 3/13/2021
Index Date (AQUA) Time (AQUA) Lat,Lon (AQUA) SZA (AQUA ) Date (METOP-A) Time (METOP-A) Lat,Lon (METOP-A) SZA (METOP-A ) Distance(km) Time Diff (sec)
1 03/15/2021 20:40:57 77.16,-145.35 79.47 03/15/2021 20:40:22 77.14,-145.39 79.47 2.07 35
2 03/15/2021 21:30:23 -77.18, 22.24 100.53 03/15/2021 21:31:02 -77.20, 22.18 100.51 3.37 39
3 03/18/2021 16:15:12 77.16, -78.90 78.34 03/18/2021 16:14:43 77.18, -78.92 78.37 2.23 29
4 03/18/2021 17:04:39 -77.22, 88.52 101.61 03/18/2021 17:05:24 -77.19, 88.48 101.64 2.82 45
5 03/21/2021 11:49:27 77.16, -12.47 77.22 03/21/2021 11:49:05 77.16, -12.64 77.24 4.31 22
6 03/21/2021 12:38:54 -77.22, 154.95 102.73 03/21/2021 12:39:45 -77.22, 154.95 102.74 0.68 51
7 03/24/2021 07:23:42 77.22, 53.76 76.17 03/24/2021 07:23:25 77.19, 53.81 76.14 3.41 17
8 03/24/2021 08:13:08 -77.23,-138.64 103.84 03/24/2021 08:14:05 -77.25,-138.59 103.83 3.23 57



Historial Predications of SNOs between AQUA and METOP-A
